Retour au catalogue

STARLINK-1171

ActifCommunicationsVLEO
NORAD 45062·PAYLOAD·🇺🇸 United States

Lancé Jan 29, 2020 depuis Cape Canaveral Space Force Station

Loading…

Prochains Passages (prochaines 24 heures)

TLE

FraisSource: CelesTrak SupGP

Époque: Sep 14, 2026, 20:40 UTC

1 45062C 20006U   26257.86159722  .00256380  00000+0  58502-3 0  2570
2 45062  53.0299  24.9162 0005197 318.3423 258.3665 15.96540638    10

Suivez STARLINK-1171 en temps réel avec AllMySat

Download on the App Store